TimeCST,TemperatureF,Dew PointF,Humidity,Sea Level PressureIn,VisibilityMPH,Wind Direction,Wind SpeedMPH,Gust SpeedMPH,PrecipitationIn,Events,Conditions,WindDirDegrees,DateUTC
12:19 AM,39.2,35.6,87,29.70,3.0,SSE,12.7,-,N/A,,Scattered Clouds,150,2013-12-03 06:19:00
12:56 AM,37.9,34.9,89,29.72,3.0,SSE,10.4,-,N/A,,Clear,160,2013-12-03 06:56:00
1:12 AM,37.4,35.6,93,29.69,2.5,South,9.2,-,N/A,,Clear,170,2013-12-03 07:12:00
1:23 AM,39.2,37.4,93,29.69,3.0,SSE,11.5,-,N/A,,Clear,160,2013-12-03 07:23:00
1:56 AM,38.8,36.9,93,29.72,3.0,SSE,11.5,-,N/A,,Clear,160,2013-12-03 07:56:00
2:25 AM,37.4,35.6,93,29.70,2.5,South,9.2,-,N/A,,Scattered Clouds,170,2013-12-03 08:25:00
2:56 AM,36.9,34.9,93,29.72,2.0,SSE,11.5,-,N/A,,Clear,160,2013-12-03 08:56:00
3:09 AM,37.4,35.6,93,29.68,2.0,SSE,10.4,-,N/A,,Scattered Clouds,160,2013-12-03 09:09:00
3:18 AM,37.4,35.6,93,29.68,2.0,SSE,10.4,-,N/A,,Mostly Cloudy,160,2013-12-03 09:18:00
3:32 AM,37.4,35.6,93,29.67,1.8,SSE,9.2,-,N/A,,Overcast,160,2013-12-03 09:32:00
3:56 AM,36.9,34.9,93,29.70,1.5,SSE,6.9,-,N/A,,Overcast,150,2013-12-03 09:56:00
4:11 AM,37.4,35.6,93,29.67,1.2,SSE,10.4,-,N/A,,Overcast,160,2013-12-03 10:11:00
4:43 AM,37.4,35.6,93,29.67,1.0,SSE,9.2,-,N/A,,Overcast,160,2013-12-03 10:43:00
4:56 AM,37.9,36.9,96,29.70,0.8,SSE,11.5,-,N/A,,Overcast,160,2013-12-03 10:56:00
5:03 AM,37.4,37.4,100,29.67,0.5,SSE,11.5,-,N/A,Fog,Fog,160,2013-12-03 11:03:00
5:56 AM,37.9,36.9,96,29.72,0.2,SSE,8.1,-,N/A,Fog,Fog,160,2013-12-03 11:56:00
6:03 AM,37.4,37.4,100,29.69,0.1,SSE,8.1,-,N/A,Fog,Fog,160,2013-12-03 12:03:00
6:56 AM,38.8,36.9,93,29.74,0.1,South,8.1,-,N/A,Fog,Fog,180,2013-12-03 12:56:00
7:56 AM,39.9,38.8,96,29.74,0.1,South,10.4,-,N/A,Fog,Fog,180,2013-12-03 13:56:00
8:56 AM,41.0,39.9,96,29.74,0.1,South,10.4,-,N/A,Fog,Fog,180,2013-12-03 14:56:00
9:56 AM,43.0,41.9,96,29.74,0.1,South,11.5,-,N/A,Fog,Fog,170,2013-12-03 15:56:00
10:56 AM,43.9,43.0,97,29.73,0.1,South,13.8,-,N/A,Fog,Fog,180,2013-12-03 16:56:00
11:56 AM,45.0,43.9,96,29.72,0.1,South,15.0,-,N/A,Fog,Fog,180,2013-12-03 17:56:00
12:56 PM,45.9,45.0,97,29.71,0.1,South,13.8,-,N/A,Fog,Fog,190,2013-12-03 18:56:00
1:40 PM,46.4,44.6,93,29.69,0.1,SSW,11.5,-,N/A,Fog,Fog,200,2013-12-03 19:40:00
1:56 PM,46.9,45.9,96,29.71,0.2,SSW,11.5,-,N/A,Fog,Fog,200,2013-12-03 19:56:00
2:56 PM,46.9,45.9,96,29.70,0.2,South,8.1,-,N/A,Fog,Fog,190,2013-12-03 20:56:00
3:14 PM,46.4,46.4,100,29.66,0.2,South,12.7,-,N/A,Fog,Fog,180,2013-12-03 21:14:00
3:56 PM,46.9,45.9,96,29.69,0.5,South,15.0,-,N/A,Fog,Fog,180,2013-12-03 21:56:00
4:56 PM,47.8,46.9,97,29.69,1.0,SSE,9.2,-,N/A,,Overcast,160,2013-12-03 22:56:00
5:56 PM,47.8,46.9,97,29.70,2.0,SSE,13.8,-,N/A,,Mostly Cloudy,160,2013-12-03 23:56:00
6:56 PM,47.8,46.9,97,29.73,2.5,South,13.8,-,N/A,,Overcast,170,2013-12-04 00:56:00
7:08 PM,48.2,46.4,93,29.71,3.0,South,12.7,-,N/A,,Overcast,170,2013-12-04 01:08:00
7:40 PM,48.2,46.4,93,29.72,3.0,South,13.8,-,N/A,,Mostly Cloudy,170,2013-12-04 01:40:00
7:56 PM,47.8,45.9,93,29.74,3.0,South,12.7,-,N/A,,Partly Cloudy,170,2013-12-04 01:56:00
8:41 PM,46.4,46.4,100,29.72,3.0,SSE,11.5,-,N/A,,Mostly Cloudy,150,2013-12-04 02:41:00
8:47 PM,46.4,44.6,93,29.72,2.5,SSE,12.7,-,N/A,,Scattered Clouds,150,2013-12-04 02:47:00
8:56 PM,45.9,45.0,97,29.74,2.5,SSE,13.8,-,N/A,,Mostly Cloudy,160,2013-12-04 02:56:00
9:33 PM,46.4,44.6,93,29.72,1.8,SSE,12.7,-,N/A,,Overcast,160,2013-12-04 03:33:00
9:43 PM,46.4,44.6,93,29.72,1.2,SSE,12.7,-,N/A,,Overcast,160,2013-12-04 03:43:00
9:56 PM,45.9,45.0,97,29.74,1.0,SSE,12.7,-,N/A,,Overcast,160,2013-12-04 03:56:00
10:18 PM,46.4,44.6,93,29.72,0.8,SSE,11.5,-,N/A,,Overcast,160,2013-12-04 04:18:00
10:26 PM,46.4,44.6,93,29.73,0.5,SSE,11.5,-,N/A,Fog,Fog,160,2013-12-04 04:26:00
10:56 PM,45.9,45.0,97,29.74,0.8,SSE,9.2,-,N/A,,Overcast,150,2013-12-04 04:56:00
11:06 PM,46.4,44.6,93,29.72,0.5,SSE,9.2,-,N/A,Fog,Fog,150,2013-12-04 05:06:00
11:35 PM,44.6,44.6,100,29.71,0.8,SSE,11.5,-,N/A,,Overcast,150,2013-12-04 05:35:00
11:44 PM,44.6,44.6,100,29.71,0.5,SSE,12.7,-,N/A,Fog,Fog,150,2013-12-04 05:44:00
11:56 PM,45.0,43.9,96,29.73,0.2,SSE,13.8,-,N/A,Fog,Fog,160,2013-12-04 05:56:00